Regional Weather Roundup
Issued by NWS

Home | Current Version | Previous Version | Text Only | Print | Product List | Glossary Off
Versions: 1 2 3 4 5 6 7 8 9 10 11 12 13 14 15 16 17 18 19 20 21 22 23 24 25 26 27 28 29 30 31 32 33 34 35 36 37 38 39 40 41 42 43 44 45 46 47 48 49 50

711
ASUS43 KLMK 272102
RWRKY
KENTUCKY REGIONAL WEATHER ROUNDUP
NATIONAL WEATHER SERVICE LOUISVILLE KY
500 PM EDT TUE SEP 27 2016

NOTE "FAIR" INDICATES FEW OR NO CLOUDS BELOW 12,000 FEET
WITH NO SIGNIFICANT WEATHER AND/OR OBSTRUCTIONS TO VISIBILITY.

KYZ001>023-026-027-061>063-070>075-272200-
WESTERN AND SOUTH CENTRAL KENTUCKY

CITY           SKY/WX    TMP DP  RH WIND       PRES   REMARKS
PADUCAH        SUNNY     79  43  27 W8        29.92F
HENDERSON      SUNNY     79  45  29 W12       29.89F
OWENSBORO      SUNNY    N/A N/A N/A SW9G17    29.90F
HOPKINSVILLE   SUNNY     75  45  33 W3        29.94F
BOWLING GREEN  SUNNY     76  39  26 W8        29.94F
GLASGOW        SUNNY     75  42  30 NW5       29.94F
$$

KYZ024-025-028>034-038-045-046-053-272200-
NORTH CENTRAL KENTUCKY

CITY           SKY/WX    TMP DP  RH WIND       PRES   REMARKS
LOUISVILLE/SDF MOSUNNY   77  41  27 SW15      29.89F
LOUISVILLE/LOU SUNNY     76  43  30 SW10G18   29.89F
FORT KNOX      SUNNY     75  44  32 S13       29.89F
$$

KYZ035>037-039>044-047>052-055>060-089>105-272200-
NORTHEAST KENTUCKY

CITY           SKY/WX    TMP DP  RH WIND       PRES   REMARKS
LEXINGTON      SUNNY     75  36  24 W10       29.91F
COVINGTON      MOSUNNY   74  44  34 W10G20    29.86F
FRANKFORT      SUNNY     75  41  29 W7G20     29.89F
$$

KYZ054-064>069-076>088-106>120-272200-
SOUTHEAST KENTUCKY

CITY           SKY/WX    TMP DP  RH WIND       PRES   REMARKS
JACKSON        SUNNY     74  43  32 VRB3      29.93F
LONDON         SUNNY     74  33  22 SW5       29.94F
SOMERSET       SUNNY     72  41  33 W5        29.95F
MIDDLESBORO    SUNNY     78  40  26 NW6       29.92F
MONTICELLO     CLEAR     75  40  28 NW7       29.95F
$$





USA.gov is the U.S. government's official web portal to all federal, state and local government web resources and services.